OPS 4682 DEB, 38419

Orbit data source: Space-Track

OPS 4682 DEB, 38419 is space debris in LEO originally from a launch on Sat, 03 Apr 1965 UTC launched from the Air Force Western Test Range (AFWTR). Debris objects in space refer to the collection of defunct objects orbiting the Earth. Examples of debris include non-operational satellites, rocket bodies, and fragments generated from explosions, collisions, or faulty payload assembly.

Loading next visibility...
Identifier
38419, 1965-027DY
Orbit
LEO
Country
Flag of USUS
Related business
Manufacturer
Unknown
Mission
Spacecraft
Bus & Motor
Unknown
Mass
Unknown
Launch date (UTC)
1965-04-03 (61 years ago)
Launch vehicle
Unknown
Launch site
Air Force Western Test Range (AFWTR)
Object type
Payload
Rocket body
Debris
Shape & HBR
Unknown shape, 0.1 m
Radar Cross Section
Small (<0.1 m²)

Expand to show TLE details & history
Last TLE update: 1 week ago

TLE from 1 week ago
0 OPS 4682 DEB
1 38419U 65027DY  26257.75531637  .00000373  00000-0  13017-2 0  9991
2 38419  90.2478   7.7826 0028805 302.6626  57.1715 12.95167036312669
Epoch: 2026-09-14T18:07Z
TLE epoch observation values (Epoch: 2026-09-14T18:07:39.334Z)
Latitude
-0.00003°
Longitude
102.13765°
Altitude
1,272.04 km
Speed
7.225 km/s
True Right ascension
00h 31m 07s
True Declination
0° 00' 00"
Sunlit
Object was in full shadow at epoch
Visualization orbit readout
Latitude
Unknown
Longitude
Unknown
Altitude
Unknown
Speed
Unknown
Apparent Right ascension
Unknown
Apparent Declination
Unknown
Sunlit
N/A
Visualization observer readout
Local Sidereal Time
10:58:52
Azimuth
Unknown
Elevation
Unknown
Doppler factor
Unknown
Orbital elements
Apogee altitude
1,300.27 km
Perigee altitude
1,256.161 km
Semi-major axis
7,656.352 km
Eccentricity
0.00288
Inclination
90.2478°
RAAN
7.7826°
Arg. of periapsis
302.6626°
True anomaly
57.44941°
Mean anomaly
57.1715°
Eccentric anomaly
57.3104°
Mean motion
3.23974 °/min
Orbital period
111.12 mins
BSTAR
0.0013017
Loading maneuver chart data...
Computing Atmospheric mass density...
Loading historical data...
Loading historical data...
Loading historical data...
Loading historical data...
Loading historical data...
Loading historical data...
Loading historical data...

Documentation

Showing up to 5 results
|